Airfield :
LOGIN :

Register | Disclaimer

   EN    FR    IT 

 










Legend :    VFR   Marginal VFR   IFR   Intensive IFR   Very Intensive IFR
Visi :
Ceiling :
>= 8 km
>= 3000ft
5 to 8 km
1000 to 3000 ft
1500m to 5 km
500 to 1000 ft
800 to 1500m
200 to 500 ft
< 800m
< 200 ft
Symbols :   Thunderstorms  Fog  Heavy snow  Heavy precipitations  Wind > 20 kt
SIGMETs :     Misc.  Thunderstorms  Icing  Turbulence  Mountain Waves  Volcanic Ashes







- Airport Elevation : 464 ft
- IATA code : EVX
- Download approach charts


LFOE - Evreux

CURRENT METAR :
  • 221830Z AUTO 32003KT 290V360 CAVOK 14/08 Q1023

EXPIRED METARs :
  • 221800Z AUTO 32004KT CAVOK 14/08 Q1023
  • 221730Z AUTO 31003KT CAVOK 16/08 Q1023
  • 221700Z AUTO 32004KT 290V350 CAVOK 17/08 Q1022
  • 221630Z AUTO 32005KT 290V350 CAVOK 18/08 Q1022
  • 221600Z AUTO 29006KT 230V330 CAVOK 18/08 Q1022

TAF TAF LFOE
Valid from the 22 at 15:00 until the 23 at 15:00 UTC


221400Z 2215/2315 30005KT CAVOK
TEMPO 2300/2306 3000 BR
No reported NOTAMs for that airfield.



MET'MAP, your aeronautical weather chart ! - Copyright ORBIFLY December 2007 - Disclaimer

ORBIFLY MET'MAP TEAM :

Programming & Development : Alexandra Zaïnal
Concept & Development : Baudouin d'Aumeries
Co-Development & Prog : Marc-Olivier Méhu
Technical & hardware support : Manuel Goepfert

Contact : metmap@orbifly.com




SOURCES & CREDITS :

   NOAA